Weather History for KORE - January, 2014

Change the Weather History Date:

Sunday, January 19, 2014

  Actual Average Record
Temperature  
Mean Temperature 28 °F -  
Max Temperature 30 °F 26 °F 42 °F (1999)
Min Temperature 25 °F 7 °F -15 °F (2003)
Degree Days  
Heating Degree Days 38    
Moisture  
Dew Point 21 °F    
Average Humidity 81    
Maximum Humidity 96    
Minimum Humidity 64    
Precipitation  
Precipitation 0.02 in - - ()
Sea Level Pressure  
Sea Level Pressure 29.64 in    
Wind  
Wind Speed 5 mph (SSW)    
Max Wind Speed 16 mph    
Max Gust Speed 23 mph    
Visibility 6 miles    
Events Fog , Snow    
Averages and records for this station are not official NWS values.
T = Trace of Precipitation, MM = Missing Value Source: NWS Daily Summary

Daily Weather History Graph

Daily Weather History Graph

Search for Another Location

Airport or City:

Trip Planner

Search our weather history database for the weather conditions in past years. The results will help you decide how hot, cold, wet, or windy it might be!

Date:

Astronomy

Jan. 19, 2014 Rise Set
Actual Time 7:14 AM EST 4:46 PM EST
Civil Twilight 6:43 AM EST 5:16 PM EST
Nautical Twilight 6:08 AM EST 5:51 PM EST
Astronomical Twilight 5:35 AM EST 6:25 PM EST
Moon 8:27 PM EST (1/19) 8:37 AM EST (1/19)
Length of Visible Light 10h 33m
Length of Day
9h 31m
Waning Gibbous, 89% of the Moon is Illuminated
Jan 19
Waning Gibbous
Jan 24
Last Quarter
Jan 30
New
Feb 6
First Quarter
Feb 14
Full

Hourly Weather History & Observations

Time (EST) Temp. Windchill Dew Point Humidity Pressure Visibility Wind Dir Wind Speed Gust Speed Precip Events Conditions
12:34 AM 28.0 °F 24.2 °F 25.0 °F 88% 29.70 in 9.0 mi WNW 3.5 mph - 0.00 in   Overcast
12:52 AM 28.0 °F - 25.0 °F 88% 29.73 in 8.0 mi Calm Calm - 0.00 in   Overcast
1:39 AM 28.0 °F - 25.0 °F 88% 29.72 in 6.0 mi Calm Calm - 0.00 in Snow Light Snow
1:52 AM 28.0 °F - 25.0 °F 88% 29.74 in 4.0 mi Calm Calm - 0.00 in Snow Light Snow
2:00 AM 28.0 °F - 25.0 °F 88% 29.72 in 4.0 mi Calm Calm - 0.00 in Snow Light Snow
2:52 AM 25.0 °F - 23.0 °F 92% 29.71 in 6.0 mi Calm Calm - 0.00 in   Overcast
3:52 AM 27.0 °F 20.5 °F 23.0 °F 85% 29.73 in 9.0 mi SSW 5.8 mph - N/A   Overcast
4:52 AM 27.0 °F - 21.9 °F 81% 29.73 in 8.0 mi Calm Calm - N/A   Overcast
5:12 AM 26.1 °F - 21.9 °F 84% 29.69 in 7.0 mi Calm Calm - N/A   Overcast
5:47 AM 26.6 °F - 21.2 °F 80% 29.69 in 9.0 mi Calm Calm - N/A   Mostly Cloudy
5:52 AM 25.0 °F 20.7 °F 21.9 °F 88% 29.71 in 9.0 mi SSW 3.5 mph - N/A   Mostly Cloudy
6:52 AM 26.1 °F 20.5 °F 21.0 °F 81% 29.70 in 8.0 mi SSW 4.6 mph - N/A   Overcast
7:26 AM 25.0 °F 18.1 °F 21.9 °F 88% 29.68 in 1.8 mi SSW 5.8 mph - 0.00 in Snow Light Snow
7:29 AM 25.0 °F 18.1 °F 21.9 °F 88% 29.68 in 1.2 mi SW 5.8 mph - 0.00 in Snow Light Snow
7:32 AM 25.0 °F 17.1 °F 21.9 °F 88% 29.68 in 0.8 mi SSW 6.9 mph - 0.00 in Snow Light Snow
7:52 AM 25.0 °F 18.1 °F 23.0 °F 92% 29.70 in 0.5 mi SSW 5.8 mph - 0.01 in Fog , Snow Snow
8:27 AM 25.0 °F 20.7 °F 24.1 °F 96% 29.66 in 1.0 mi South 3.5 mph - 0.01 in Snow Light Snow
8:36 AM 25.0 °F 20.7 °F 23.0 °F 92% 29.66 in 0.8 mi South 3.5 mph - 0.01 in Snow Light Snow
8:43 AM 25.0 °F 18.1 °F 23.0 °F 92% 29.66 in 1.0 mi SSW 5.8 mph - 0.01 in Snow Light Snow
8:52 AM 25.0 °F 17.1 °F 23.0 °F 92% 29.68 in 1.2 mi South 6.9 mph - 0.01 in Snow Light Snow
8:58 AM 25.0 °F 17.1 °F 21.9 °F 88% 29.66 in 1.5 mi SSW 6.9 mph - 0.00 in Snow Light Snow
9:08 AM 25.0 °F 16.3 °F 21.9 °F 88% 29.66 in 3.0 mi SSW 8.1 mph - 0.00 in Snow Light Snow
9:52 AM 25.0 °F 14.8 °F 21.0 °F 85% 29.69 in 5.0 mi SW 10.4 mph - 0.00 in   Overcast
10:04 AM 25.0 °F 14.8 °F 21.0 °F 85% 29.66 in 3.0 mi SW 10.4 mph - 0.00 in Snow Light Snow
10:11 AM 25.0 °F 14.8 °F 19.9 °F 81% 29.66 in 2.0 mi SSW 10.4 mph - 0.00 in Snow Light Snow
10:19 AM 25.0 °F 13.6 °F 19.9 °F 81% 29.66 in 1.5 mi SSW 12.7 mph - 0.00 in Snow Light Snow
10:25 AM 25.0 °F 16.3 °F 21.0 °F 85% 29.66 in 1.2 mi SW 8.1 mph - 0.00 in Snow Light Snow
10:36 AM 25.0 °F 18.1 °F 21.0 °F 85% 29.65 in 1.0 mi SW 5.8 mph - 0.00 in Snow Light Snow
10:48 AM 26.6 °F 18.2 °F 21.2 °F 80% 29.64 in 1.2 mi SW 8.1 mph - 0.00 in Snow Light Snow
10:52 AM 26.1 °F 16.2 °F 21.0 °F 81% 29.66 in 1.5 mi SSW 10.4 mph - 0.00 in Snow Light Snow
11:03 AM 26.1 °F 16.8 °F 21.0 °F 81% 29.64 in 2.5 mi SW 9.2 mph - 0.00 in Snow Light Snow
11:11 AM 26.1 °F 16.8 °F 21.0 °F 81% 29.63 in 4.0 mi SW 9.2 mph - 0.00 in   Haze
11:52 AM 26.1 °F 16.2 °F 21.0 °F 81% 29.62 in 9.0 mi SW 10.4 mph - 0.00 in   Overcast
12:52 PM 27.0 °F 16.1 °F 19.9 °F 75% 29.57 in 10.0 mi SSW 12.7 mph 21.9 mph N/A   Overcast
1:26 PM 28.0 °F 17.5 °F 19.9 °F 72% 29.54 in 10.0 mi SSW 12.7 mph - N/A   Mostly Cloudy
1:52 PM 28.9 °F 18.2 °F 19.9 °F 69% 29.56 in 10.0 mi SSW 13.8 mph - N/A   Mostly Cloudy
2:52 PM 30.0 °F 19.1 °F 19.0 °F 64% 29.55 in 10.0 mi SW 15.0 mph - N/A   Mostly Cloudy
3:52 PM 28.9 °F 18.2 °F 19.0 °F 67% 29.53 in 10.0 mi SSW 13.8 mph - N/A   Scattered Clouds
4:52 PM 28.0 °F 16.1 °F 19.0 °F 69% 29.54 in 10.0 mi SSW 16.1 mph 23.0 mph N/A   Clear
5:52 PM 28.0 °F 16.1 °F 19.0 °F 69% 29.55 in 10.0 mi SW 16.1 mph 23.0 mph N/A   Mostly Cloudy
6:52 PM 28.0 °F 17.0 °F 19.0 °F 69% 29.56 in 10.0 mi SSW 13.8 mph - N/A   Overcast
7:52 PM 28.0 °F 16.5 °F 19.0 °F 69% 29.57 in 10.0 mi SSW 15.0 mph - N/A   Overcast
8:52 PM 27.0 °F 16.1 °F 18.0 °F 69% 29.57 in 10.0 mi SSW 12.7 mph - N/A   Scattered Clouds
9:52 PM 28.0 °F 19.3 °F 19.0 °F 69% 29.56 in 10.0 mi South 9.2 mph - N/A   Overcast
10:52 PM 28.9 °F 19.8 °F 19.9 °F 69% 29.55 in 10.0 mi South 10.4 mph - N/A   Overcast
11:52 PM 28.0 °F 19.3 °F 19.9 °F 72% 29.54 in 10.0 mi SSW 9.2 mph - N/A   Overcast